[[{"header":{"parameterUnit":"m.s-1","parameterCategory":2,"la1":30.2991,"la2":30.254,"lo1":-89.0895,"lo2":-89.0444,"dy":0.0017,"dx":0.0017,"nx":28,"ny":28,"refTime":"2024-10-06T03:00:00:Z","depth":"0","parameterNumber":2,"parameterNumberName":"U-component_of_CURRENTS"},"data":[0,0,0,0,0,0,0,0,0,0,0,0,0,0,0,0,0,0,0,0,0,0,0,0,0,0,0,0,0,0,0,0,0,0,0,0,0,0,0,0,0,0,0,0,0,0,0,0,0,0,0,0,0,0,0,0,0,0,0.1839,0.1839,0,0.1824,0.1824,0.1823,0.1798,0.1798,0.1798,0.1797,0.1778,0.1778,0.1778,0,0,0,0,0,0,0,0,0,0,0,0,0,0.1866,0.1865,0.1839,0.1839,0.1839,0.1824,0.1824,0.1823,0.1798,0.1798,0.1798,0.1797,0.1778,0.1778,0.1778,0,0,0,0,0,0,0,0,0,0,0,0,0,0.1852,0.1865,0.1839,0.1826,0.1824,0.1824,0.1824,0.1823,0.1799,0.1798,0.1797,0.1797,0.1778,0.1778,0.1778,0.1787,0,0,0.1777,0.1777,0,0,0,0,0,0,0,0,0.1853,0.1851,0.1828,0.1827,0.1825,0.1814,0.1826,0.1811,0.1799,0.1807,0.1797,0.1797,0.1791,0.179,0.1786,0.1786,0.1785,0.1777,0.1777,0.1777,0.1777,0,0,0,0,0,0,0,0.1854,0.1851,0.1832,0.1828,0.1826,0.1827,0.1824,0.1823,0.1801,0.1806,0.1805,0.1805,0.179,0.1787,0.1786,0.1785,0.1777,0.1777,0.1777,0.1777,0.1812,0.1813,0,0,0,0,0,0,0.1857,0.1852,0.1832,0.1832,0.1839,0.1827,0.1824,0.1817,0.1801,0.1799,0.1806,0.1804,0.1787,0.1786,0.1785,0.1813,0.1777,0.1777,0.1776,0.1811,0.1812,0.1813,0,0,0,0,0,0,0.1858,0.1855,0.1833,0.1843,0.184,0.1827,0.182,0.1817,0.1816,0.1801,0.1798,0.1808,0.1787,0.1785,0.1793,0.1812,0.1776,0.1776,0.181,0.1811,0.1813,0.1858,0,0,0,0,0,0,0.1858,0.1855,0.1856,0.1843,0.184,0.1841,0.182,0.1817,0.1818,0.1816,0.1803,0.18,0.1786,0.1793,0.1793,0.1811,0.1776,0.1808,0.181,0.1812,0.1855,0.1861,0.1866,0,0,0,0,0,0.1859,0.1862,0.1856,0.1854,0.1839,0.1842,0.1841,0.1829,0.1819,0.1825,0.1817,0.18,0.1806,0.1794,0.1793,0.1811,0.1807,0.181,0.1812,0.1853,0.186,0.1866,0,0,0,0,0,0,0.1878,0.1859,0.1852,0.185,0.185,0.1838,0.1843,0.1835,0.1833,0.1831,0.1813,0.181,0.1826,0.1814,0.1802,0.1829,0.1805,0.1807,0.1837,0.1843,0.1849,0.1858,0.1776,0,0,0,0,0,0.1882,0.1875,0.1866,0.1866,0.1867,0.1857,0.1857,0.1851,0.1846,0.1844,0.1834,0.183,0.1836,0.1835,0.1837,0.1849,0.1857,0.1861,0.1867,0.1871,0.1879,0.1913,0.1922,0.1822,0.1822,0.1821,0,0,0.1888,0.1879,0.1874,0.187,0.1867,0.1875,0.1856,0.1861,0.1869,0.1843,0.1852,0.185,0.1845,0.1861,0.1867,0.1852,0.1906,0.1875,0.1879,0.1884,0.1916,0.1926,0.1935,0.1823,0.1823,0.1823,0,0,0.1901,0.1891,0.1892,0.1895,0.1897,0.1893,0.1897,0.1891,0.189,0.19,0.1889,0.1901,0.1898,0.1903,0.1905,0.1943,0.1937,0.1941,0.1972,0.2005,0.2013,0.2021,0.205,0.2059,0.194,0.194,0.1941,0,0.1912,0.1907,0.1897,0.1906,0.191,0.1904,0.1914,0.1918,0.1916,0.1923,0.1909,0.1929,0.1922,0.1951,0.1962,0.1956,0.1971,0.1946,0.2012,0.202,0.2027,0.2055,0.2065,0.1943,0.1943,0.1942,0.1942,0,0.1925,0.1927,0.1932,0.1936,0.1944,0.1953,0.1957,0.1967,0.1964,0.1967,0.1993,0.199,0.2002,0.2004,0.1992,0.2041,0.2035,0.2019,0.1996,0.204,0.2066,0.2076,0.1947,0.1946,0.1945,0.1944,0,0,0.1925,0.1937,0.1938,0.1941,0.1958,0.196,0.1989,0.2006,0.2023,0.2031,0.2058,0.2072,0.2072,0.2075,0.2069,0.2093,0.2154,0.2077,0.2078,0.2106,0.2229,0.219,0.2197,0.215,0.2152,0.2153,0.223,0,0.1936,0.195,0.1958,0.1975,0.198,0.1994,0.2019,0.2039,0.2054,0.2081,0.2096,0.2117,0.2099,0.2107,0.2134,0.215,0.2181,0.2135,0.2182,0.2184,0.2144,0.2208,0.2077,0.2131,0.2239,0.2241,0.2242,0,0.1938,0.1946,0.1962,0.1983,0.1988,0.2004,0.2037,0.2057,0.2104,0.2123,0.2157,0.2167,0.2213,0.2185,0.2249,0.2221,0.2234,0.2242,0.2245,0.22,0.2163,0.2103,0.2144,0.2066,0.2257,0.2255,0.2254,0,0.1919,0.1944,0.1953,0.1959,0.1989,0.2004,0.2022,0.2066,0.2094,0.215,0.2182,0.2231,0.2261,0.2291,0.2314,0.2287,0.2384,0.2346,0.2327,0.2324,0.2217,0.2201,0.2186,0.2399,0.2399,0.2399,0.2399,0,0.1913,0.1916,0.1941,0.1942,0.196,0.1987,0.2017,0.2049,0.2112,0.2149,0.2197,0.2241,0.229,0.2343,0.2351,0.238,0.2418,0.2352,0.2349,0.2229,0.2214,0.2143,0.2122,0.2402,0.2401,0.24,0.24,0,0.188,0.1899,0.1905,0.1936,0.1947,0.1953,0.2009,0.2035,0.2099,0.2156,0.218,0.2272,0.2338,0.2386,0.2446,0.2426,0.2376,0.2452,0.2309,0.2287,0.2166,0.2152,0.2102,0.2029,0.2436,0.2436,0.2436,0,0.1858,0.186,0.1887,0.1894,0.1904,0.1927,0.195,0.2018,0.2052,0.2164,0.219,0.2288,0.2348,0.2439,0.2424,0.2451,0.2372,0.2332,0.2251,0.216,0.2143,0.2077,0.2013,0.2132,0.2129,0.2127,0.2125,0,0.1817,0.183,0.1839,0.1854,0.1871,0.1891,0.1927,0.1959,0.2039,0.2103,0.2191,0.2256,0.2343,0.2316,0.2351,0.2339,0.2193,0.2284,0.2225,0.1941,0.1834,0.1759,0.2086,0.2105,0.2107,0.2108,0.2109,0.211,0.1785,0.1781,0.1798,0.1808,0.1826,0.1838,0.1839,0.1891,0.1943,0.2001,0.2112,0.2154,0.2171,0.2202,0.2186,0.2044,0.2075,0.1938,0.1944,0.1896,0.1773,0.2062,0.2052,0.2054,0.2055,0.2056,0.2057,0,0.1738,0.1743,0.1752,0.1755,0.1747,0.1779,0.1809,0.1801,0.1825,0.1893,0.1952,0.1938,0.1906,0.19,0.18,0.1705,0.1619,0.1643,0.1504,0.1469,0.1749,0.1681,0.1547,0.1547,0.1547,0.1547,0.1547,0.1547,0.1713,0.17,0.1703,0.1671,0.1673,0.1639,0.164,0.1644,0.1672,0.166,0.164,0.1668,0.1707,0.1643,0.1508,0.1452,0.132,0.1257,0.1285,0.1463,0.149,0.1515,0.1444,0.1263,0.1262,0.0897,0.0894,0.0892]},{"header":{"parameterUnit":"m.s-1","parameterCategory":2,"la1":30.2991,"la2":30.254,"lo1":-89.0895,"lo2":-89.0444,"dy":0.0017,"dx":0.0017,"nx":28,"ny":28,"refTime":"2024-10-06T03:00:00:Z","depth":"0","parameterNumber":3,"parameterNumberName":"V-component_of_CURRENTS"},"data":[0,0,0,0,0,0,0,0,0,0,0,0,0,0,0,0,0,0,0,0,0,0,0,0,0,0,0,0,0,0,0,0,0,0,0,0,0,0,0,0,0,0,0,0,0,0,0,0,0,0,0,0,0,0,0,0,0,0,-0.0243,-0.0243,0,-0.0283,-0.0283,-0.0284,-0.0311,-0.0311,-0.0311,-0.0311,-0.0366,-0.0367,-0.0369,0,0,0,0,0,0,0,0,0,0,0,0,0,-0.0235,-0.0235,-0.0243,-0.0243,-0.0243,-0.0282,-0.0283,-0.0284,-0.0311,-0.0311,-0.0311,-0.0311,-0.0365,-0.0367,-0.0369,0,0,0,0,0,0,0,0,0,0,0,0,0,-0.0255,-0.0235,-0.0243,-0.026,-0.0262,-0.0282,-0.0283,-0.0284,-0.0311,-0.0311,-0.0311,-0.0311,-0.0365,-0.0367,-0.0369,-0.0382,0,0,-0.0376,-0.0377,0,0,0,0,0,0,0,0,-0.0254,-0.0255,-0.0257,-0.0259,-0.0261,-0.029,-0.0301,-0.0317,-0.0311,-0.0294,-0.0311,-0.0311,-0.034,-0.0345,-0.0355,-0.0385,-0.0387,-0.0376,-0.0377,-0.0378,-0.0379,0,0,0,0,0,0,0,-0.0252,-0.0254,-0.0261,-0.0257,-0.026,-0.0281,-0.0284,-0.0304,-0.0319,-0.0296,-0.0297,-0.0299,-0.0342,-0.0353,-0.0356,-0.0388,-0.0376,-0.0378,-0.0379,-0.038,-0.0423,-0.0423,0,0,0,0,0,0,-0.0241,-0.0252,-0.0259,-0.0262,-0.0255,-0.0281,-0.0284,-0.0282,-0.0318,-0.0323,-0.0299,-0.03,-0.0349,-0.0354,-0.0358,-0.0364,-0.0378,-0.038,-0.0381,-0.0424,-0.0423,-0.0423,0,0,0,0,0,0,-0.024,-0.0241,-0.0258,-0.0257,-0.026,-0.028,-0.0279,-0.0283,-0.029,-0.032,-0.0325,-0.0301,-0.0349,-0.0355,-0.0373,-0.0367,-0.0381,-0.0383,-0.0424,-0.0424,-0.0423,-0.0383,0,0,0,0,0,0,-0.024,-0.0241,-0.0238,-0.0256,-0.0259,-0.0265,-0.0279,-0.0284,-0.029,-0.0292,-0.0323,-0.0329,-0.035,-0.0369,-0.0375,-0.037,-0.0385,-0.0424,-0.0424,-0.0423,-0.0385,-0.0381,-0.0379,0,0,0,0,0,-0.024,-0.0234,-0.0238,-0.0239,-0.0254,-0.0264,-0.0268,-0.0285,-0.029,-0.0292,-0.0313,-0.0328,-0.0371,-0.0371,-0.0377,-0.0373,-0.0424,-0.0424,-0.0423,-0.0386,-0.0382,-0.0379,0,0,0,0,0,0,-0.0235,-0.0237,-0.0241,-0.0238,-0.0247,-0.0268,-0.0271,-0.028,-0.0299,-0.03,-0.0328,-0.0335,-0.035,-0.0366,-0.0365,-0.0385,-0.0399,-0.04,-0.0369,-0.0365,-0.0362,-0.0346,-0.0387,0,0,0,0,0,-0.023,-0.0224,-0.0234,-0.0232,-0.0234,-0.0251,-0.0258,-0.0266,-0.0283,-0.0291,-0.0312,-0.0334,-0.0354,-0.0363,-0.0386,-0.0395,-0.0406,-0.0396,-0.0393,-0.0391,-0.0382,-0.0397,-0.0395,-0.0422,-0.0422,-0.0422,0,0,-0.0228,-0.0228,-0.0225,-0.023,-0.0239,-0.0237,-0.0256,-0.026,-0.0259,-0.0294,-0.0302,-0.0328,-0.0356,-0.0369,-0.0376,-0.038,-0.0388,-0.039,-0.0388,-0.038,-0.0397,-0.0394,-0.0392,-0.0422,-0.0422,-0.0422,0,0,-0.0217,-0.0219,-0.0209,-0.0212,-0.0218,-0.0227,-0.0224,-0.024,-0.0248,-0.0258,-0.0283,-0.0302,-0.0332,-0.035,-0.0363,-0.0357,-0.0376,-0.0365,-0.0333,-0.0348,-0.0346,-0.0344,-0.0351,-0.035,-0.0359,-0.0359,-0.0359,0,-0.0215,-0.02,-0.021,-0.0201,-0.0199,-0.0218,-0.0207,-0.0218,-0.0237,-0.0239,-0.0254,-0.0295,-0.0322,-0.0332,-0.0332,-0.0349,-0.0358,-0.0343,-0.0344,-0.0342,-0.0341,-0.0348,-0.0348,-0.0357,-0.0357,-0.0357,-0.0357,0,-0.0193,-0.0183,-0.0178,-0.0169,-0.0171,-0.0165,-0.0175,-0.018,-0.0191,-0.02,-0.0216,-0.0255,-0.0275,-0.0289,-0.031,-0.0313,-0.0322,-0.0341,-0.035,-0.0335,-0.0345,-0.0345,-0.0354,-0.0355,-0.0355,-0.0356,0,0,-0.0177,-0.0164,-0.016,-0.0146,-0.0149,-0.0144,-0.0144,-0.0143,-0.013,-0.0161,-0.0153,-0.0196,-0.0214,-0.023,-0.026,-0.0274,-0.0278,-0.0298,-0.03,-0.0299,-0.0303,-0.0291,-0.0291,-0.0297,-0.0296,-0.0296,-0.0311,0,-0.0154,-0.0123,-0.0127,-0.0099,-0.0082,-0.0097,-0.0092,-0.0096,-0.0102,-0.0101,-0.014,-0.0149,-0.0191,-0.0199,-0.0221,-0.0264,-0.0277,-0.0271,-0.0321,-0.0322,-0.031,-0.029,-0.0244,-0.0251,-0.0311,-0.0311,-0.0311,0,-0.0123,-0.0105,-0.0073,-0.0051,-0.0045,-0.0037,-0.002,-0.0015,-0.0024,-0.0032,-0.005,-0.0079,-0.0107,-0.0147,-0.0205,-0.0199,-0.0244,-0.028,-0.0282,-0.0283,-0.0311,-0.0277,-0.025,-0.0322,-0.0312,-0.0312,-0.0312,0,-0.0088,-0.0062,-0.0032,-0.0025,-0.001,-0.0001,0.0006,0.0007,0.0024,0.0016,0.0025,-0.0018,-0.0032,-0.0098,-0.0173,-0.0188,-0.0234,-0.0267,-0.0298,-0.0298,-0.0273,-0.0271,-0.0315,-0.0304,-0.0304,-0.0304,-0.0304,0,-0.0052,-0.0025,-0.0012,0.0007,0.0045,0.0038,0.0078,0.0076,0.0085,0.0118,0.0067,0.0083,-0.0019,-0.006,-0.0144,-0.0211,-0.0212,-0.0282,-0.0297,-0.0258,-0.0254,-0.0329,-0.0387,-0.0305,-0.0305,-0.0305,-0.0304,0,-0.0015,-0.0007,0.0033,0.0054,0.0064,0.0093,0.0125,0.0157,0.0154,0.0194,0.0192,0.0164,0.0121,0.0021,-0.0075,-0.0157,-0.0273,-0.0263,-0.0204,-0.0212,-0.031,-0.0367,-0.0433,-0.0476,-0.0295,-0.0295,-0.0295,0,0.0008,0.0032,0.0072,0.01,0.0112,0.015,0.018,0.0189,0.0227,0.0251,0.0277,0.0251,0.0256,0.0125,-0.0013,-0.014,-0.0244,-0.0207,-0.0232,-0.0297,-0.0373,-0.0418,-0.0453,-0.0185,-0.0184,-0.0183,-0.0182,0,0.0053,0.0065,0.0098,0.0152,0.0191,0.0239,0.0282,0.032,0.0339,0.0385,0.0438,0.0447,0.0339,0.0247,0.0065,-0.0033,-0.0249,-0.0192,-0.0276,-0.0297,-0.0333,-0.0386,-0.0195,-0.0174,-0.0175,-0.0176,-0.0176,-0.0176,0.0088,0.0117,0.0157,0.0211,0.0258,0.0319,0.0365,0.0426,0.0502,0.0573,0.057,0.0619,0.0456,0.0239,0.0095,-0.0142,-0.0187,-0.0227,-0.0292,-0.0332,-0.0368,-0.0154,-0.0144,-0.0145,-0.0145,-0.0146,-0.0146,0,0.0132,0.0161,0.0213,0.0274,0.0332,0.0347,0.0428,0.0483,0.0589,0.0677,0.074,0.0705,0.0526,0.0294,-0.0028,-0.021,-0.029,-0.0324,-0.0379,-0.0414,-0.0225,-0.0214,-0.0198,-0.0198,-0.0198,-0.0198,-0.0198,-0.0198,0.0155,0.0209,0.0231,0.0325,0.037,0.0445,0.0495,0.0585,0.0666,0.0784,0.083,0.0835,0.0655,0.0127,-0.0242,-0.0334,-0.0494,-0.051,-0.0622,-0.049,-0.0486,-0.0482,-0.0485,-0.0526,-0.0527,-0.0762,-0.0765,-0.0767]}],[{"header":{"parameterUnit":"m.s-1","parameterCategory":2,"la1":30.2991,"la2":30.254,"lo1":-89.0895,"lo2":-89.0444,"dy":0.0017,"dx":0.0017,"nx":28,"ny":28,"refTime":"2024-10-06T03:00:00:Z","depth":"2","parameterNumber":2,"parameterNumberName":"U-component_of_CURRENTS"},"data":[0,0,0,0,0,0,0,0,0,0,0,0,0,0,0,0,0,0,0,0,0,0,0,0,0,0,0,0,0,0,0,0,0,0,0,0,0,0,0,0,0,0,0,0,0,0,0,0,0,0,0,0,0,0,0,0,0,0,0.1722,0.1722,0,0.1725,0.1725,0.1725,0.1705,0.1705,0.1705,0.1704,0.17,0.17,0.1701,0,0,0,0,0,0,0,0,0,0,0,0,0,0.172,0.172,0.1722,0.1722,0.1722,0.1725,0.1725,0.1725,0.1705,0.1705,0.1705,0.1704,0.17,0.17,0.1701,0,0,0,0,0,0,0,0,0,0,0,0,0,0.1719,0.172,0.1722,0.1715,0.1715,0.1725,0.1725,0.1725,0.1705,0.1705,0.1704,0.1704,0.17,0.17,0.1701,0.1711,0,0,0.1701,0.1702,0,0,0,0,0,0,0,0,0.172,0.1719,0.1716,0.1716,0.1715,0.1717,0.1723,0.1721,0.1705,0.1706,0.1704,0.1704,0.1707,0.1707,0.1705,0.1711,0.1711,0.1701,0.1702,0.1702,0.1702,0,0,0,0,0,0,0,0.172,0.1719,0.172,0.1716,0.1716,0.172,0.1718,0.1723,0.1707,0.1706,0.1705,0.171,0.1707,0.1704,0.1704,0.1711,0.1701,0.1702,0.1702,0.1702,0.1753,0.1754,0,0,0,0,0,0,0.1724,0.1719,0.172,0.1721,0.1719,0.172,0.1719,0.1714,0.1707,0.1706,0.1711,0.1709,0.1704,0.1704,0.1704,0.1742,0.1702,0.1702,0.1702,0.1751,0.1753,0.1754,0,0,0,0,0,0,0.1724,0.1724,0.172,0.1723,0.1723,0.1721,0.1716,0.1715,0.1722,0.1711,0.1709,0.172,0.1704,0.1704,0.1721,0.174,0.1702,0.1702,0.175,0.1752,0.1754,0.18,0,0,0,0,0,0,0.1724,0.1723,0.1729,0.1723,0.1723,0.1731,0.1717,0.1715,0.1726,0.1725,0.1719,0.1717,0.1704,0.1721,0.1722,0.174,0.1703,0.1749,0.1751,0.1753,0.1797,0.1803,0.1809,0,0,0,0,0,0.1723,0.173,0.1729,0.173,0.1728,0.1732,0.1733,0.1728,0.1728,0.1732,0.1735,0.1718,0.1735,0.1723,0.1723,0.1742,0.1747,0.175,0.1753,0.1795,0.1802,0.1809,0,0,0,0,0,0,0.1737,0.1729,0.1727,0.1732,0.1736,0.173,0.174,0.1739,0.1744,0.1746,0.1734,0.1733,0.1754,0.1746,0.1732,0.1764,0.1739,0.1742,0.177,0.1777,0.1783,0.1787,0.1703,0,0,0,0,0,0.1742,0.1741,0.174,0.1746,0.175,0.1749,0.1754,0.1751,0.1753,0.1755,0.1754,0.1757,0.1765,0.177,0.1771,0.1792,0.1794,0.1804,0.181,0.1815,0.1819,0.1847,0.1856,0.1763,0.1763,0.1763,0,0,0.1748,0.1747,0.1746,0.1749,0.1752,0.1762,0.175,0.176,0.1772,0.1755,0.1775,0.1777,0.1775,0.1795,0.1804,0.1791,0.1845,0.1818,0.1823,0.1824,0.1851,0.186,0.1868,0.1765,0.1764,0.1764,0,0,0.176,0.1761,0.1764,0.1771,0.178,0.178,0.1788,0.1791,0.1795,0.1814,0.1808,0.1826,0.1834,0.1838,0.1841,0.1883,0.1874,0.1885,0.1917,0.1944,0.1952,0.1959,0.198,0.1988,0.1888,0.1888,0.1888,0,0.177,0.1771,0.1769,0.178,0.1788,0.1792,0.1803,0.1813,0.1822,0.1835,0.1826,0.186,0.1854,0.1888,0.1899,0.1896,0.1909,0.1889,0.1952,0.1959,0.1965,0.1984,0.1993,0.1891,0.189,0.189,0.189,0,0.1783,0.179,0.1797,0.1807,0.1818,0.1829,0.1841,0.1858,0.1868,0.1877,0.1912,0.1914,0.1933,0.1937,0.1929,0.1975,0.1969,0.1955,0.1933,0.1977,0.1995,0.2003,0.1894,0.1893,0.1893,0.1892,0,0,0.1778,0.18,0.1801,0.1809,0.1831,0.1838,0.187,0.1894,0.1918,0.1938,0.1972,0.1992,0.1998,0.2003,0.2002,0.2026,0.2077,0.2013,0.2013,0.2031,0.2141,0.2072,0.2074,0.2078,0.208,0.2081,0.2137,0,0.1786,0.1805,0.1817,0.1839,0.1847,0.1868,0.1896,0.1923,0.1946,0.1982,0.2005,0.2034,0.2023,0.2037,0.2062,0.2072,0.21,0.2063,0.2097,0.2098,0.203,0.2081,0.1907,0.1937,0.2145,0.2146,0.2147,0,0.1789,0.1799,0.1819,0.1846,0.1853,0.1874,0.1916,0.1943,0.1999,0.2021,0.2064,0.208,0.2127,0.2104,0.216,0.214,0.2147,0.2153,0.2155,0.2078,0.2044,0.1926,0.1943,0.216,0.2159,0.2158,0.2158,0,0.1771,0.1798,0.1813,0.1823,0.1858,0.1878,0.1905,0.1956,0.1988,0.2053,0.2082,0.2137,0.2168,0.2195,0.2207,0.2192,0.2261,0.2237,0.2186,0.2182,0.2032,0.2011,0.2281,0.228,0.228,0.228,0.228,0,0.1765,0.1772,0.1806,0.1812,0.1836,0.187,0.1908,0.1948,0.2013,0.205,0.2103,0.2141,0.2194,0.2233,0.2236,0.2238,0.2288,0.2203,0.2196,0.2043,0.2023,0.2211,0.2202,0.2282,0.2282,0.2281,0.2281,0,0.1734,0.1759,0.1772,0.181,0.1827,0.1845,0.1908,0.1938,0.2004,0.2057,0.2082,0.2167,0.2207,0.2245,0.229,0.2268,0.2277,0.2264,0.2079,0.2048,0.2173,0.2166,0.2215,0.2213,0.2212,0.221,0.2209,0,0.1716,0.1725,0.1762,0.1772,0.179,0.1825,0.1852,0.1927,0.196,0.2058,0.208,0.2153,0.217,0.2221,0.2204,0.2204,0.225,0.2037,0.1968,0.2181,0.2169,0.2164,0.216,0.1796,0.1791,0.1788,0.1785,0,0.1681,0.1701,0.1714,0.1734,0.176,0.1784,0.1828,0.185,0.1931,0.197,0.2022,0.2049,0.21,0.2019,0.2026,0.2002,0.202,0.1962,0.2245,0.1833,0.1788,0.1775,0.1784,0.1753,0.1756,0.1758,0.176,0.1761,0.1655,0.1654,0.1676,0.1689,0.1715,0.172,0.1719,0.1755,0.1783,0.1795,0.1887,0.1857,0.188,0.179,0.1739,0.1709,0.185,0.1757,0.1768,0.1782,0.1717,0.1671,0.1602,0.1604,0.1606,0.1608,0.1609,0,0.1613,0.1619,0.1628,0.1636,0.1627,0.1668,0.1685,0.1649,0.1629,0.1647,0.1651,0.1495,0.1439,0.1469,0.1377,0.138,0.1364,0.1315,0.1274,0.1308,0.1337,0.1248,0.1009,0.1007,0.1006,0.1004,0,0,0.159,0.1573,0.1572,0.1537,0.1547,0.1514,0.1504,0.145,0.1433,0.1337,0.1295,0.1362,0.1427,0.1191,0.1166,0.1073,0.1181,0.1029,0.1514,0.1501,0.1528,0.1601,0.1504,0,0,0,0,0]},{"header":{"parameterUnit":"m.s-1","parameterCategory":2,"la1":30.2991,"la2":30.254,"lo1":-89.0895,"lo2":-89.0444,"dy":0.0017,"dx":0.0017,"nx":28,"ny":28,"refTime":"2024-10-06T03:00:00:Z","depth":"2","parameterNumber":3,"parameterNumberName":"V-component_of_CURRENTS"},"data":[0,0,0,0,0,0,0,0,0,0,0,0,0,0,0,0,0,0,0,0,0,0,0,0,0,0,0,0,0,0,0,0,0,0,0,0,0,0,0,0,0,0,0,0,0,0,0,0,0,0,0,0,0,0,0,0,0,0,0.0091,0.0091,0,0.0057,0.0057,0.0056,0.0034,0.0033,0.0033,0.0033,-0.0015,-0.0016,-0.0018,0,0,0,0,0,0,0,0,0,0,0,0,0,0.0096,0.0096,0.0091,0.009,0.009,0.0057,0.0057,0.0056,0.0034,0.0033,0.0033,0.0033,-0.0015,-0.0016,-0.0018,0,0,0,0,0,0,0,0,0,0,0,0,0,0.0081,0.0096,0.0091,0.0075,0.0073,0.0057,0.0057,0.0056,0.0034,0.0033,0.0033,0.0033,-0.0015,-0.0016,-0.0018,-0.0024,0,0,-0.0023,-0.0024,0,0,0,0,0,0,0,0,0.0082,0.0081,0.0078,0.0076,0.0074,0.0049,0.0041,0.0029,0.0034,0.0049,0.0033,0.0033,0.0005,0.0002,-0.0004,-0.0026,-0.0028,-0.0023,-0.0024,-0.0025,-0.0026,0,0,0,0,0,0,0,0.0083,0.0082,0.0077,0.0077,0.0075,0.0055,0.0054,0.0038,0.0028,0.0047,0.0046,0.0042,0.0004,-0.0002,-0.0005,-0.0029,-0.0023,-0.0025,-0.0026,-0.0026,-0.006,-0.0059,0,0,0,0,0,0,0.009,0.0084,0.0079,0.0076,0.0077,0.0056,0.0054,0.0057,0.0029,0.0024,0.0042,0.0041,0.0001,-0.0003,-0.0007,-0.0015,-0.0025,-0.0027,-0.0028,-0.006,-0.0059,-0.0059,0,0,0,0,0,0,0.009,0.009,0.008,0.0079,0.0076,0.0056,0.0061,0.0057,0.0044,0.0025,0.002,0.0032,0.0001,-0.0005,-0.0021,-0.0017,-0.0027,-0.0029,-0.006,-0.006,-0.0059,-0.0032,0,0,0,0,0,0,0.0091,0.0091,0.0091,0.0079,0.0076,0.0076,0.0061,0.0056,0.0042,0.004,0.0015,0.0011,-0.0,-0.0019,-0.0023,-0.002,-0.003,-0.006,-0.006,-0.0059,-0.0033,-0.0031,-0.0029,0,0,0,0,0,0.0091,0.0098,0.0092,0.0091,0.008,0.0076,0.0073,0.0058,0.0042,0.0043,0.0022,0.0011,-0.002,-0.002,-0.0025,-0.0022,-0.006,-0.006,-0.006,-0.0034,-0.0031,-0.0029,0,0,0,0,0,0,0.0096,0.0096,0.0089,0.0093,0.0087,0.0073,0.0069,0.0055,0.0038,0.0032,0.001,0.0005,-0.0006,-0.002,-0.002,-0.0031,-0.0041,-0.0042,-0.002,-0.0017,-0.0015,0.0001,-0.0032,0,0,0,0,0,0.0099,0.0107,0.0099,0.0102,0.0099,0.0081,0.0074,0.0065,0.005,0.0042,0.0021,0.0002,-0.0007,-0.0017,-0.0028,-0.0039,-0.0048,-0.004,-0.0038,-0.0036,-0.0026,-0.0038,-0.0036,-0.0058,-0.0058,-0.0058,0,0,0.0102,0.0102,0.0105,0.0104,0.0095,0.0099,0.0076,0.007,0.0071,0.0039,0.0027,0.0008,-0.0008,-0.0014,-0.0021,-0.0028,-0.0036,-0.0036,-0.0034,-0.0024,-0.0038,-0.0035,-0.0033,-0.0058,-0.0058,-0.0058,0,0,0.0117,0.0111,0.0124,0.0121,0.0113,0.0106,0.0104,0.0087,0.0077,0.0066,0.0045,0.003,0.0006,-0.0001,-0.0007,-0.0001,-0.0022,-0.0011,0.0009,-0.0003,-0.0001,0.0001,-0.0012,-0.0011,-0.0013,-0.0013,-0.0013,0,0.0118,0.0135,0.0125,0.0135,0.0135,0.0112,0.0123,0.0112,0.009,0.0086,0.0068,0.0038,0.0019,0.0018,0.0019,0.0005,-0.0009,0.0001,0.0,0.0002,0.0003,-0.001,-0.001,-0.0011,-0.0012,-0.0012,-0.0012,0,0.0143,0.0153,0.0159,0.0169,0.0167,0.0173,0.0161,0.0151,0.0131,0.0123,0.011,0.008,0.0064,0.0053,0.0036,0.0035,0.002,0.0007,-0.0004,0.0007,-0.0008,-0.0008,-0.0009,-0.001,-0.001,-0.0011,0,0,0.016,0.0176,0.0178,0.0189,0.0186,0.0191,0.0191,0.0193,0.0201,0.0167,0.0171,0.0143,0.012,0.0111,0.0081,0.0066,0.0056,0.0038,0.0037,0.003,0.0025,0.0029,0.0028,0.0037,0.0037,0.0037,0.001,0,0.0184,0.0215,0.0214,0.0239,0.0255,0.0237,0.0245,0.024,0.0233,0.0229,0.0193,0.0185,0.0144,0.0132,0.011,0.0077,0.0056,0.0064,0.0013,0.0011,0.0016,0.0029,0.0045,0.0025,0.001,0.001,0.001,0,0.0212,0.0233,0.0263,0.0284,0.0288,0.0295,0.0308,0.0313,0.0306,0.0297,0.0277,0.0248,0.0219,0.0178,0.0124,0.0129,0.008,0.0047,0.0045,0.0042,0.0015,0.0011,0.0024,0.0009,0.0009,0.0009,0.0009,0,0.0239,0.0267,0.0294,0.0299,0.0317,0.0322,0.0328,0.0334,0.0351,0.0338,0.0346,0.0303,0.0289,0.0222,0.0148,0.0133,0.0091,0.0062,0.0018,0.0017,0.0021,0.0021,0.0021,0.0021,0.0021,0.0021,0.0021,0,0.0269,0.0293,0.0307,0.0322,0.0357,0.0353,0.039,0.0387,0.0401,0.0435,0.038,0.0396,0.0299,0.0259,0.0174,0.0105,0.0108,0.0031,0.0015,0.003,0.0031,0.0008,0.0007,0.002,0.002,0.002,0.002,0,0.0298,0.0306,0.0341,0.0362,0.0371,0.0394,0.043,0.0463,0.0463,0.0502,0.0496,0.0472,0.0423,0.0324,0.0232,0.0155,0.0075,0.0043,0.0069,0.0056,0.0,0.0001,-0.0005,-0.0005,-0.0005,-0.0005,-0.0005,0,0.0317,0.0336,0.0371,0.0396,0.0406,0.0442,0.0475,0.0489,0.0533,0.0557,0.0585,0.0548,0.0543,0.0412,0.0267,0.0128,0.0094,0.0049,0.0024,0.0015,-0.0001,-0.0,0.0,0.0033,0.0034,0.0034,0.0034,0,0.0354,0.036,0.039,0.0442,0.0476,0.0527,0.0574,0.0619,0.0646,0.0684,0.0733,0.0727,0.0601,0.048,0.0288,0.0192,0.0072,0.005,0.0039,0.0041,0.005,0.0035,0.0035,0.0037,0.0036,0.0036,0.0036,0.0036,0.0381,0.0407,0.0441,0.0491,0.0537,0.0606,0.0656,0.0721,0.0796,0.0848,0.0841,0.0826,0.0678,0.0441,0.0276,0.0094,0.01,0.0029,0.0029,0.0028,0.0041,0.005,0.0038,0.0038,0.0038,0.0038,0.0038,0,0.0415,0.0442,0.0491,0.055,0.0608,0.0623,0.072,0.0779,0.0878,0.0905,0.0936,0.0795,0.0658,0.0469,0.0206,0.006,0.004,0.0009,0.0012,0.0012,0.0011,0.0023,0.0016,0.0015,0.0014,0.0014,0,0,0.0436,0.0485,0.0509,0.0601,0.0641,0.0724,0.0782,0.0878,0.0924,0.0957,0.0933,0.0901,0.0694,0.0498,0.0302,0.015,0.0109,0.0121,0.0158,0.0186,0.0186,0.0047,0.0069,0,0,0,0,0]}],[{"header":{"parameterUnit":"m.s-1","parameterCategory":2,"la1":30.2991,"la2":30.254,"lo1":-89.0895,"lo2":-89.0444,"dy":0.0017,"dx":0.0017,"nx":28,"ny":28,"refTime":"2024-10-06T03:00:00:Z","depth":"4","parameterNumber":2,"parameterNumberName":"U-component_of_CURRENTS"},"data":[0,0,0,0,0,0,0,0,0,0,0,0,0,0,0,0,0,0,0,0,0,0,0,0,0,0,0,0,0,0,0,0,0,0,0,0,0,0,0,0,0,0,0,0,0,0,0,0,0,0,0,0,0,0,0,0,0,0,0.0972,0.0973,0,0.1001,0.1001,0.1001,0.1027,0.1027,0.1028,0.1028,0.1066,0.1067,0.1067,0,0,0,0,0,0,0,0,0,0,0,0,0,0.0934,0.0935,0.0972,0.0973,0.0973,0.1001,0.1001,0.1001,0.1027,0.1027,0.1028,0.1029,0.1066,0.1067,0.1067,0,0,0,0,0,0,0,0,0,0,0,0,0,0.0954,0.0935,0.0972,0.0991,0.0993,0.1001,0.1001,0.1001,0.1027,0.1027,0.1028,0.1029,0.1066,0.1067,0.1067,0.1059,0,0,0.107,0.107,0,0,0,0,0,0,0,0,0.0953,0.0955,0.0987,0.0989,0.0992,0.1013,0.1002,0.1022,0.1027,0.1012,0.1028,0.1029,0.105,0.1052,0.1053,0.1061,0.1063,0.107,0.1071,0.1071,0.1071,0,0,0,0,0,0,0,0.0952,0.0954,0.0982,0.0988,0.0991,0.0996,0.0999,0.1005,0.1026,0.1013,0.1016,0.1021,0.1051,0.1052,0.1054,0.1063,0.107,0.1071,0.1071,0.1072,0.1142,0.1144,0,0,0,0,0,0,0.0951,0.0953,0.0981,0.0983,0.0975,0.0996,0.1,0.1004,0.1025,0.103,0.1021,0.1022,0.105,0.1053,0.1056,0.1111,0.1071,0.1072,0.1072,0.1141,0.1143,0.1144,0,0,0,0,0,0,0.095,0.0953,0.098,0.097,0.0974,0.0996,0.1,0.1004,0.1029,0.1031,0.1035,0.1045,0.1051,0.1055,0.1084,0.111,0.1072,0.1073,0.1139,0.1141,0.1143,0.1179,0,0,0,0,0,0,0.0949,0.0952,0.0967,0.097,0.0975,0.0998,0.1,0.1004,0.1031,0.1034,0.1053,0.1056,0.1052,0.1082,0.1085,0.111,0.1074,0.1138,0.114,0.1143,0.1177,0.1182,0.1187,0,0,0,0,0,0.0947,0.0958,0.0967,0.0971,0.099,0.0998,0.1001,0.1018,0.1031,0.1043,0.1061,0.1056,0.11,0.1084,0.1086,0.1113,0.1136,0.114,0.1142,0.1174,0.1181,0.1187,0,0,0,0,0,0,0.0949,0.0962,0.0972,0.0987,0.1,0.1004,0.1021,0.1031,0.1054,0.1066,0.1068,0.1072,0.1109,0.1107,0.1089,0.1142,0.112,0.1123,0.1143,0.115,0.1155,0.1157,0.1074,0,0,0,0,0,0.0956,0.0971,0.098,0.0996,0.1004,0.1018,0.1029,0.104,0.1055,0.1067,0.1082,0.1102,0.1119,0.1132,0.1144,0.1169,0.117,0.1191,0.1196,0.1201,0.1205,0.123,0.1238,0.1154,0.1154,0.1154,0,0,0.0962,0.0972,0.0982,0.0999,0.1011,0.1026,0.1027,0.105,0.1068,0.1067,0.1107,0.1122,0.1131,0.1161,0.1178,0.1165,0.1226,0.1205,0.1208,0.121,0.1234,0.1242,0.1249,0.1156,0.1156,0.1155,0,0,0.0971,0.0991,0.1004,0.1018,0.1042,0.1048,0.106,0.108,0.1098,0.1131,0.1139,0.1171,0.1197,0.1208,0.1216,0.126,0.1255,0.127,0.1299,0.1323,0.1329,0.1335,0.1348,0.1354,0.1272,0.1273,0.1273,0,0.0981,0.0996,0.101,0.1026,0.1042,0.1061,0.1078,0.1096,0.1125,0.1145,0.1152,0.1209,0.1218,0.1253,0.1271,0.1272,0.1281,0.127,0.1329,0.1335,0.134,0.1351,0.1358,0.1275,0.1274,0.1274,0.1274,0,0.0993,0.1016,0.1026,0.1054,0.1071,0.1091,0.1112,0.1142,0.1171,0.119,0.1242,0.1258,0.1293,0.1304,0.1302,0.1349,0.1342,0.1332,0.1309,0.1351,0.136,0.1366,0.1278,0.1277,0.1276,0.1276,0,0,0.0987,0.1027,0.1034,0.1051,0.1089,0.11,0.114,0.1174,0.1207,0.1247,0.1288,0.1328,0.1349,0.1359,0.1366,0.1388,0.1435,0.1382,0.1382,0.1388,0.1487,0.1386,0.1383,0.1439,0.144,0.1441,0.1477,0,0.0995,0.1025,0.1046,0.1081,0.1096,0.1131,0.1163,0.1202,0.1241,0.1287,0.132,0.1364,0.1365,0.1391,0.1416,0.1432,0.1455,0.1426,0.1451,0.1451,0.1351,0.1388,0.1446,0.1482,0.1483,0.1484,0.1485,0,0.0995,0.1017,0.1049,0.1093,0.1105,0.1135,0.1194,0.1228,0.1293,0.1326,0.1379,0.1404,0.1454,0.1445,0.1499,0.1483,0.1494,0.1499,0.1501,0.1397,0.1362,0.1432,0.1497,0.1496,0.1495,0.1494,0.1494,0,0.0971,0.1018,0.1045,0.1061,0.1114,0.1146,0.1184,0.1248,0.1283,0.1361,0.1395,0.1453,0.1489,0.1517,0.1538,0.1528,0.1583,0.1567,0.1485,0.1477,0.1541,0.1534,0.1605,0.1605,0.1604,0.1604,0.1604,0,0.0958,0.0983,0.1042,0.1057,0.1098,0.1144,0.12,0.1247,0.1317,0.1355,0.142,0.1449,0.1513,0.1545,0.1556,0.1538,0.1601,0.1494,0.1482,0.1555,0.155,0.1545,0.1538,0.1606,0.1605,0.1605,0.1605,0,0.0923,0.0963,0.0998,0.1064,0.1088,0.1122,0.1203,0.1237,0.1315,0.1366,0.1394,0.1467,0.1505,0.1546,0.1589,0.1549,0.1547,0.1525,0.1604,0.1595,0.1422,0.1417,0.1434,0.1431,0.1428,0.1426,0.1424,0,0.0905,0.0921,0.0996,0.1019,0.1054,0.1113,0.1146,0.123,0.1259,0.1357,0.1365,0.1437,0.1472,0.1449,0.1505,0.1515,0.1498,0.1487,0.1451,0.1419,0.1406,0.1405,0.1403,0.142,0.1419,0.1418,0.1417,0,0.087,0.091,0.0939,0.0985,0.1027,0.1059,0.1113,0.1124,0.1209,0.1292,0.1301,0.1319,0.1356,0.1381,0.1401,0.1405,0.1487,0.1458,0.1464,0.143,0.1402,0.1391,0.1393,0.1408,0.1409,0.141,0.1411,0,0.085,0.0861,0.0907,0.0938,0.0984,0.0985,0.1021,0.1043,0.1081,0.1181,0.1182,0.1257,0.1333,0.1325,0.1343,0.134,0.1319,0.1273,0.1287,0.1299,0.1238,0.1182,0.1113,0,0,0,0,0,0.0823,0.0826,0.0852,0.0872,0.0911,0.0933,0.0985,0.102,0.1098,0.107,0.1122,0.1146,0.1169,0.1212,0.1183,0.1291,0.133,0.1251,0.1285,0.1355,0.1366,0.1308,0,0,0,0,0,0,0.0804,0.0829,0.0829,0.0809,0.0809,0.0834,0.0862,0.0912,0.0898,0.0987,0.1003,0.1078,0.1119,0.1175,0.1162,0.1176,0.1172,0.1306,0.1303,0.1349,0.1359,0.1368,0.1311,0,0,0,0,0]},{"header":{"parameterUnit":"m.s-1","parameterCategory":2,"la1":30.2991,"la2":30.254,"lo1":-89.0895,"lo2":-89.0444,"dy":0.0017,"dx":0.0017,"nx":28,"ny":28,"refTime":"2024-10-06T03:00:00:Z","depth":"4","parameterNumber":3,"parameterNumberName":"V-component_of_CURRENTS"},"data":[0,0,0,0,0,0,0,0,0,0,0,0,0,0,0,0,0,0,0,0,0,0,0,0,0,0,0,0,0,0,0,0,0,0,0,0,0,0,0,0,0,0,0,0,0,0,0,0,0,0,0,0,0,0,0,0,0,0,0.0258,0.0258,0,0.0253,0.0253,0.0253,0.025,0.025,0.0249,0.0249,0.0236,0.0236,0.0236,0,0,0,0,0,0,0,0,0,0,0,0,0,0.0249,0.0249,0.0258,0.0258,0.0258,0.0253,0.0253,0.0253,0.025,0.025,0.0249,0.0249,0.0236,0.0236,0.0236,0,0,0,0,0,0,0,0,0,0,0,0,0,0.025,0.0249,0.0258,0.0255,0.0254,0.0253,0.0253,0.0253,0.025,0.025,0.0249,0.0249,0.0236,0.0236,0.0236,0.0236,0,0,0.0235,0.0234,0,0,0,0,0,0,0,0,0.025,0.0251,0.0255,0.0255,0.0254,0.0251,0.0245,0.0247,0.025,0.0252,0.0249,0.0249,0.024,0.024,0.024,0.0236,0.0235,0.0235,0.0234,0.0234,0.0234,0,0,0,0,0,0,0,0.025,0.0251,0.0257,0.0255,0.0255,0.0249,0.0249,0.0246,0.0247,0.0252,0.0251,0.025,0.024,0.024,0.024,0.0235,0.0235,0.0234,0.0234,0.0234,0.0229,0.0229,0,0,0,0,0,0,0.025,0.0251,0.0257,0.0256,0.0251,0.0249,0.0249,0.0253,0.0248,0.0247,0.025,0.025,0.0241,0.024,0.0239,0.0247,0.0234,0.0234,0.0234,0.0229,0.0229,0.0229,0,0,0,0,0,0,0.025,0.0251,0.0257,0.0253,0.0253,0.0249,0.0254,0.0253,0.0255,0.0246,0.0245,0.0253,0.0241,0.024,0.0242,0.0246,0.0234,0.0233,0.0229,0.0229,0.0229,0.0258,0,0,0,0,0,0,0.025,0.0251,0.0256,0.0253,0.0253,0.026,0.0254,0.0253,0.0254,0.0253,0.0248,0.0246,0.0241,0.0243,0.0242,0.0246,0.0233,0.0229,0.0229,0.0229,0.0257,0.026,0.0261,0,0,0,0,0,0.025,0.0258,0.0257,0.0258,0.026,0.026,0.026,0.0257,0.0254,0.0258,0.0255,0.0247,0.0243,0.0243,0.0242,0.0245,0.0229,0.0229,0.0229,0.0256,0.0259,0.0261,0,0,0,0,0,0,0.0256,0.0258,0.0257,0.0265,0.0264,0.0259,0.0263,0.0259,0.026,0.0261,0.0252,0.0251,0.0254,0.0245,0.0245,0.0243,0.0232,0.0232,0.0254,0.0256,0.0258,0.0264,0.0233,0,0,0,0,0,0.026,0.0268,0.0265,0.0272,0.0272,0.0268,0.0268,0.0266,0.0265,0.0265,0.026,0.0255,0.0253,0.0252,0.0248,0.0249,0.0235,0.0249,0.0251,0.0253,0.0256,0.0239,0.024,0.023,0.023,0.023,0,0,0.0264,0.0267,0.0271,0.0274,0.0274,0.028,0.0268,0.0271,0.0277,0.0263,0.0271,0.0264,0.0256,0.0259,0.0258,0.0252,0.0247,0.0253,0.0255,0.0257,0.0239,0.024,0.0241,0.023,0.023,0.023,0,0,0.0277,0.0279,0.0289,0.029,0.0291,0.029,0.0291,0.0289,0.0288,0.0293,0.0285,0.0282,0.0278,0.0273,0.0271,0.0281,0.026,0.0276,0.0291,0.0274,0.0275,0.0276,0.0256,0.0254,0.0276,0.0276,0.0276,0,0.0281,0.0295,0.0291,0.03,0.0305,0.0296,0.0307,0.0306,0.0305,0.0307,0.0299,0.0294,0.0286,0.0289,0.0293,0.0286,0.0271,0.0284,0.0278,0.0278,0.0278,0.0257,0.0255,0.0277,0.0277,0.0277,0.0277,0,0.0299,0.0311,0.0317,0.0328,0.0332,0.0339,0.0337,0.034,0.0337,0.0336,0.0337,0.0324,0.032,0.0315,0.0308,0.0305,0.0292,0.0284,0.0273,0.0281,0.0258,0.0255,0.0279,0.0279,0.0278,0.0278,0,0,0.0308,0.0327,0.0329,0.0341,0.0348,0.0353,0.0363,0.0371,0.0381,0.037,0.0378,0.0369,0.0358,0.0354,0.0339,0.0323,0.0309,0.0305,0.0304,0.0289,0.0268,0.0251,0.0246,0.0298,0.0298,0.0298,0.0251,0,0.0324,0.0349,0.0354,0.0378,0.0391,0.0389,0.0402,0.0406,0.0407,0.0412,0.0392,0.0396,0.0374,0.0373,0.0353,0.0324,0.0303,0.0322,0.026,0.0258,0.0245,0.0244,0.0297,0.0249,0.0248,0.0248,0.0248,0,0.034,0.0356,0.0384,0.0408,0.0414,0.0428,0.0447,0.0458,0.046,0.0459,0.0452,0.0436,0.0417,0.0395,0.0342,0.0355,0.0314,0.0285,0.0282,0.0256,0.0237,0.0239,0.0242,0.0243,0.0243,0.0244,0.0244,0,0.0349,0.0377,0.0402,0.0409,0.0434,0.0447,0.0463,0.0474,0.0493,0.0492,0.0499,0.0469,0.0459,0.0405,0.0344,0.0342,0.028,0.0269,0.0213,0.0211,0.0227,0.0227,0.0226,0.0226,0.0226,0.0226,0.0226,0,0.0362,0.0382,0.041,0.0423,0.0457,0.0468,0.0505,0.0512,0.0532,0.0555,0.0527,0.0529,0.0461,0.0417,0.0353,0.0276,0.0284,0.0215,0.0199,0.024,0.0242,0.0225,0.0226,0.0224,0.0225,0.0225,0.0225,0,0.0366,0.0384,0.0416,0.0449,0.0464,0.0489,0.0538,0.0566,0.0577,0.0603,0.0604,0.0577,0.0516,0.0439,0.0352,0.0294,0.0218,0.0186,0.0236,0.0223,0.0157,0.0159,0.012,0.0119,0.0118,0.0117,0.0117,0,0.037,0.0388,0.0435,0.0461,0.0479,0.0522,0.0556,0.0586,0.0616,0.0631,0.0642,0.0596,0.0562,0.0429,0.0346,0.0217,0.0196,0.0154,0.0153,0.0158,0.0146,0.015,0.0154,0.0115,0.0115,0.0115,0.0115,0,0.038,0.0399,0.0426,0.0479,0.052,0.0569,0.0616,0.0639,0.0671,0.0679,0.0666,0.0599,0.0529,0.0427,0.0326,0.0235,0.0181,0.0145,0.0146,0.0145,0.0153,0.0142,0.0147,0.0112,0.0112,0.0112,0.0113,0,0.0389,0.0408,0.0449,0.0494,0.0547,0.0597,0.0624,0.0656,0.0684,0.0691,0.0686,0.061,0.0571,0.0436,0.0346,0.0251,0.0223,0.0188,0.0187,0.0189,0.022,0.0241,0.0213,0,0,0,0,0,0.0396,0.042,0.0462,0.0513,0.0566,0.06,0.0657,0.0681,0.0705,0.0695,0.0691,0.0622,0.0489,0.0441,0.0342,0.0324,0.0205,0.0204,0.0164,0.0096,0.01,0.0123,0,0,0,0,0,0,0.0402,0.044,0.0459,0.0521,0.0558,0.0623,0.0661,0.0681,0.0677,0.0682,0.0616,0.0586,0.0462,0.054,0.0335,0.0309,0.0267,0.0147,0.0144,0.0094,0.0097,0.01,0.0125,0,0,0,0,0]}]]